Orange, MA

1:19 PM EST on December 15, 2019 (GMT -0500)
Orange Municipal

Weather History for KORE - October, 2019

Change the Weather History Date:

Tuesday, October 15, 2019

  Actual Average Record
Temperature  
Mean Temperature 49 °F -  
Max Temperature 61 °F 57 °F 75 °F (2014)
Min Temperature 37 °F 34 °F 24 °F (2002)
Degree Days  
Heating Degree Days 16    
Moisture  
Dew Point 35 °F    
Average Humidity 67    
Maximum Humidity 93    
Minimum Humidity 30    
Precipitation  
Precipitation 0.00 in - - ()
Sea Level Pressure  
Sea Level Pressure 30.12 in    
Wind  
Wind Speed 2 mph ()    
Max Wind Speed 10 mph    
Max Gust Speed -    
Visibility 10.0 miles    
Events      
Averages and records for this station are not official NWS values.
T = Trace of Precipitation, MM = Missing Value Source: Averaged Metar Reports

Daily Weather History Graph

Daily Weather History Graph

Search for Another Location

Airport or City:

Astronomy

Oct. 15, 2019 Rise Set
Actual Time 7:01 AM EDT 6:07 PM EDT
Civil Twilight 6:33 AM EDT 6:35 PM EDT
Nautical Twilight 6:00 AM EDT 7:08 PM EDT
Astronomical Twilight 5:28 AM EDT 7:40 PM EDT
Moon 7:24 PM EDT 8:30 AM EDT
Length of Visible Light 12h 02m
Length of Day
11h 05m
Full, 97% of the Moon is Illuminated
Oct 15
Full
Oct 21
Last Quarter
Oct 27
New
Nov 4
First Quarter
Nov 12
Full

Hourly Weather History & Observations

Time (EDT) Temp. Windchill Dew Point Humidity Pressure Visibility Wind Dir Wind Speed Gust Speed Precip Events Conditions
12:52 AM 45.0 °F - 42.1 °F 90% 30.05 in 10.0 mi Calm Calm - N/A   Clear
1:52 AM 43.0 °F 40.3 °F 39.9 °F 89% 30.07 in 10.0 mi ESE 4.6 mph - N/A   Clear
2:52 AM 41.0 °F - 37.9 °F 89% 30.09 in 10.0 mi Calm Calm - N/A   Clear
3:52 AM 39.9 °F - 37.0 °F 89% 30.09 in 10.0 mi Calm Calm - N/A   Clear
4:52 AM 43.0 °F 38.8 °F 36.0 °F 76% 30.11 in 10.0 mi WNW 6.9 mph - N/A   Clear
5:52 AM 39.0 °F - 35.1 °F 86% 30.13 in 10.0 mi Calm Calm - N/A   Clear
6:52 AM 37.0 °F - 35.1 °F 93% 30.14 in 10.0 mi Calm Calm - N/A   Clear
7:52 AM 37.9 °F - 35.1 °F 89% 30.16 in 10.0 mi Calm Calm - N/A   Clear
8:52 AM 45.0 °F - 37.9 °F 76% 30.17 in 10.0 mi Calm Calm - N/A   Clear
9:52 AM 51.1 °F - 37.0 °F 59% 30.17 in 10.0 mi Calm Calm - N/A   Clear
10:52 AM 54.0 °F - 34.0 °F 47% 30.17 in 10.0 mi NW 5.8 mph - N/A   Clear
11:52 AM 57.0 °F - 28.9 °F 34% 30.17 in 10.0 mi NW 10.4 mph - N/A   Clear
12:52 PM 55.9 °F - 32.0 °F 40% 30.15 in 10.0 mi SSW 5.8 mph - N/A   Clear
1:52 PM 59.0 °F - 30.9 °F 35% 30.12 in 10.0 mi Variable 3.5 mph - N/A   Clear
2:52 PM 60.1 °F - 30.0 °F 32% 30.11 in 10.0 mi WSW 5.8 mph - N/A   Clear
3:52 PM 61.0 °F - 28.9 °F 30% 30.09 in 10.0 mi WSW 6.9 mph - N/A   Clear
4:52 PM 60.1 °F - 28.9 °F 31% 30.08 in 10.0 mi SW 4.6 mph - N/A   Clear
5:52 PM 55.0 °F - 35.1 °F 47% 30.08 in 10.0 mi SSW 3.5 mph - N/A   Clear
6:52 PM 48.9 °F - 37.0 °F 64% 30.10 in 10.0 mi Calm Calm - N/A   Clear
7:52 PM 44.1 °F - 37.0 °F 76% 30.11 in 10.0 mi Calm Calm - N/A   Clear
8:52 PM 41.0 °F - 36.0 °F 82% 30.12 in 10.0 mi Calm Calm - N/A   Clear
9:52 PM 39.0 °F - 35.1 °F 86% 30.13 in 10.0 mi Calm Calm - N/A   Clear
10:52 PM 37.0 °F - 34.0 °F 89% 30.13 in 10.0 mi Calm Calm - N/A   Clear
11:52 PM 37.0 °F - 34.0 °F 89% 30.12 in 10.0 mi Calm Calm - N/A   Clear